DW8131 Varberg SE current weather conditions

sailwx.info

Wind from 162 at 4 knots

Air temperature 17.2° C
Dewpoint 15.0° C

Last reported at 2019-Jun-27 08:01 UTC.
Time now 2019-Jun-27 08:41 UTC

Location: N 57°14' E 012°07'.
View on Google Maps.

See reports from other nearby stations

  
Tides and Currents Weather Stations Pressure Air Temp Water Temp Dewpoint Dewpoint Depression Visibility Wind Speed Wind Dir Waves Ship Positions
date/time (UTC)wind fromknots sea level pressurealtimeterstation pressurevisibilityair tempwater tempwave heightnotes
2019-Jun-27 08:01 162 4 17.2
2019-Jun-27 07:46 151 3 17.8
2019-Jun-27 07:32 273 2 18.3
2019-Jun-27 07:16 244 3 18.9
2019-Jun-27 07:01 225 4 19.4
2019-Jun-27 06:45 273 5 20.0
2019-Jun-27 06:31 252 6 21.7
2019-Jun-27 06:15 267 6 21.7
2019-Jun-27 06:01 265 9 20.0
2019-Jun-27 05:45 294 7 20.0
2019-Jun-27 05:30 290 8 18.9
2019-Jun-27 05:15 294 9 18.3
2019-Jun-27 05:00 275 10 17.8
2019-Jun-27 04:00 275 11 16.7
2019-Jun-27 03:48 282 9 16.1
2019-Jun-27 03:32 262 9 15.6
2019-Jun-27 03:16 254 9 15.0
2019-Jun-27 03:02 281 8 15.0
2019-Jun-27 02:46 267 9 15.0
2019-Jun-27 02:31 269 8 15.0
2019-Jun-27 02:16 263 9 15.0
2019-Jun-27 02:01 267 9 15.0
2019-Jun-27 01:46 288 7 15.0
2019-Jun-27 01:30 279 8 15.0
2019-Jun-27 01:17 283 7 15.0
2019-Jun-27 01:01 269 7 15.0
2019-Jun-27 00:46 289 6 15.0
2019-Jun-27 00:32 279 7 15.0
2019-Jun-27 00:15 286 6 15.0
2019-Jun-27 00:01 248 7 15.0
2019-Jun-26 23:46 249 9 15.0
2019-Jun-26 23:30 269 7 15.0
2019-Jun-26 23:16 260 7 15.6
2019-Jun-26 23:01 277 8 15.6
2019-Jun-26 12:01 282 10 23.9
2019-Jun-26 11:46 291 11 24.4
2019-Jun-26 11:31 317 8 26.1
2019-Jun-26 11:16 302 6 26.1
2019-Jun-26 11:01 276 5 25.6
2019-Jun-26 10:46 256 3 26.1
2019-Jun-26 10:30 262 3 24.4
2019-Jun-26 10:15 327 5 23.9
2019-Jun-26 10:00 281 6 23.9
2019-Jun-26 09:45 243 3 23.3
2019-Jun-26 09:30 258 3 22.8
2019-Jun-26 09:16 237 4 22.2
2019-Jun-26 09:00 226 2 21.1
2019-Jun-26 08:45 189 2 21.1
2019-Jun-26 08:30 178 2 21.1
2019-Jun-26 08:15 194 2 20.6
2019-Jun-26 08:00 207 3 20.6
2019-Jun-26 05:03 157 5 19.4
2019-Jun-26 04:47 161 5 19.4
2019-Jun-26 04:31 148 5 19.4
2019-Jun-26 04:16 155 6 19.4
2019-Jun-26 04:01 132 5 18.9
2019-Jun-26 03:48 148 4 18.9
2019-Jun-26 03:31 167 4 18.9
2019-Jun-26 03:16 158 5 18.9
2019-Jun-26 03:01 157 5 18.9
2019-Jun-26 02:46 147 6 18.9
2019-Jun-26 02:31 157 6 18.9
2019-Jun-26 02:16 142 6 19.4
2019-Jun-26 02:01 155 6 19.4
2019-Jun-26 01:45 156 6 19.4
2019-Jun-26 01:31 139 6 19.4
2019-Jun-26 01:16 144 6 19.4
2019-Jun-26 01:01 138 6 19.4
2019-Jun-26 00:46 149 6 20.0
2019-Jun-26 00:30 159 6 20.0
2019-Jun-26 00:15 136 6 20.0
2019-Jun-26 00:00 157 4 20.0
2019-Jun-25 23:46 126 4 20.0
2019-Jun-25 23:30 122 5 20.0
2019-Jun-25 23:15 132 4 20.0
2019-Jun-25 23:00 140 4 20.6
2019-Jun-25 22:45 111 4 20.6
2019-Jun-25 22:30 131 4 20.6
2019-Jun-25 22:15 132 3 20.6
2019-Jun-25 22:00 146 1 20.6
2019-Jun-25 21:45 153 3 20.6
2019-Jun-25 21:30 142 5 21.1
2019-Jun-25 21:17 130 5 21.1
2019-Jun-25 21:01 147 6 21.1
2019-Jun-25 20:47 157 6 21.1
2019-Jun-25 20:32 149 5 21.1
2019-Jun-25 20:18 169 3 21.1
2019-Jun-25 20:01 158 3 20.6
2019-Jun-25 19:47 180 4 20.6
2019-Jun-25 19:31 180 6 21.7
2019-Jun-25 19:17 175 8 22.2
2019-Jun-25 19:02 153 6 21.7
2019-Jun-25 18:46 163 6 21.7
2019-Jun-25 18:31 190 6 21.7
2019-Jun-25 18:17 167 6 22.2
2019-Jun-25 18:02 180 6 22.8
2019-Jun-25 17:47 195 6 22.8
2019-Jun-25 17:31 157 6 22.2
2019-Jun-25 17:16 153 5 22.2
2019-Jun-25 17:01 173 5 22.8
2019-Jun-25 16:46 157 4 23.9
2019-Jun-25 16:31 171 4 24.4
2019-Jun-25 16:16 175 3 24.4
2019-Jun-25 16:01 193 3 24.4
2019-Jun-25 15:46 173 3 23.9
2019-Jun-25 15:30 150 3 23.9
2019-Jun-25 15:17 171 3 23.9
2019-Jun-25 09:00 178 5 23.9
2019-Jun-25 08:45 099 5 22.2
2019-Jun-25 08:32 151 6 21.7
2019-Jun-25 08:17 139 6 21.7
2019-Jun-25 08:01 142 5 21.1